Location: Newark
(19.2128°S, 49.7858°W)
Time: 04:58:10
(UTC+00:00)

Envisat - Pass Details

Date: 26 August 2019
Orbit: 764 x 766 km, 98.1° (Epoch: 17 September)

Event Time Altitude Azimuth Distance (km) Brightness Sun altitude
Rises 08:53:49 0° 43° (NE) 3,216 7.1 -9.8°
Reaches altitude 10° 08:56:36 10° 59° (ENE) 2,298 6.7 -9.1°
Maximum altitude 09:00:22 21° 107° (ESE) 1,657 5.7 -8.3°
Drops below altitude 10° 09:04:10 10° 155° (SSE) 2,316 5.7 -7.4°
Sets 09:06:58 0° 170° (S) 3,249 6.3 -6.7°
